Terminal Aerodrome Forecast
Issued by NWS

Home | Current Version | Previous Version | Text Only | Print | Product List | Glossary On
Versions: 1 2 3 4 5 6 7 8 9 10 11 12 13 14 15 16 17 18 19 20 21 22 23 24 25 26 27 28 29 30 31 32 33 34 35 36 37 38
000
FTUS45 KPSR 211317 AAA
TAFIWA
TAF AMD
KIWA 211317Z 2113/2212 22014KT P6SM VCSH SCT035 BKN050 OVC100
     FM212100 27016G21KT P6SM SCT050 BKN070
     FM220400 12007KT P6SM SCT120
      AMD LTD TO CLD VIS AND WIND TIL 211300=

USA.gov is the U.S. government's official web portal to all federal, state and local government web resources and services.